Weather History for KSLC - July, 2013

Change the Weather History Date:

Monday, July 15, 2013

  Actual Average Record
Temperature  
Mean Temperature 85 °F 79 °F  
Max Temperature 100 °F 93 °F 105 °F (2003)
Min Temperature 70 °F 65 °F 52 °F (1962)
Degree Days  
Heating Degree Days 0 0  
Month to date heating degree days 0 0  
Since 1 June heating degree days 4 46  
Since 1 July heating degree days 0 0  
Cooling Degree Days 20 14  
Month to date cooling degree days 283 188  
Year to date cooling degree days 676 425  
Since 1 June cooling degree days 606 375  
Growing Degree Days 35 (Base 50)    
Moisture  
Dew Point 51 °F    
Average Humidity 34    
Maximum Humidity 53    
Minimum Humidity 15    
Precipitation  
Precipitation 0.00 in 0.03 in 0.37 in (1878)
Month to date precipitation 0.92 0.26  
Year to date precipitation 7.04 9.47  
Snow  
Snow 0.00 in 0.00 in - ()
Month to date snowfall 0.0 0.0  
Since 1 July snowfall 0.0 0.0  
Snow Depth 0.00 in    
Sea Level Pressure  
Sea Level Pressure 29.80 in    
Wind  
Wind Speed 4 mph (South)    
Max Wind Speed 13 mph    
Max Gust Speed 23 mph    
Visibility 10 miles    
Events Rain , Thunderstorm    
T = Trace of Precipitation, MM = Missing Value Source: NWS Daily Summary

Daily Weather History Graph

Daily Weather History Graph

Search for Another Location

Airport or City:

Trip Planner

Search our weather history database for the weather conditions in past years. The results will help you decide how hot, cold, wet, or windy it might be!

Date:

Astronomy

Jul. 15, 2013 Rise Set
Actual Time 6:09 AM MDT 8:57 PM MDT
Civil Twilight 5:37 AM MDT 9:29 PM MDT
Nautical Twilight 4:56 AM MDT 10:10 PM MDT
Astronomical Twilight 4:09 AM MDT 10:57 PM MDT
Moon 1:36 PM MDT (7/15) 12:09 AM MDT (7/15)
Length of Visible Light 15h 52m
Length of Day
14h 48m
Waxing Crescent, 46% of the Moon is Illuminated
Jul 15
Waxing Crescent
Jul 15
First Quarter
Jul 22
Full
Jul 29
Last Quarter
Aug 6
New

Hourly Weather History & Observations

Time (MDT) Temp. Dew Point Humidity Pressure Visibility Wind Dir Wind Speed Gust Speed Precip Events Conditions
12:53 AM 80.1 °F 50.0 °F 35% 29.83 in 10.0 mi Calm Calm - N/A   Mostly Cloudy
1:53 AM 75.9 °F 55.9 °F 50% 29.83 in 10.0 mi WNW 6.9 mph - N/A   Partly Cloudy
2:53 AM 75.0 °F 54.0 °F 48% 29.83 in 10.0 mi Calm Calm - N/A   Partly Cloudy
3:53 AM 72.0 °F 54.0 °F 53% 29.82 in 10.0 mi WSW 4.6 mph - N/A   Partly Cloudy
4:53 AM 73.0 °F 51.1 °F 46% 29.81 in 10.0 mi Calm Calm - N/A   Scattered Clouds
5:53 AM 73.0 °F 51.1 °F 46% 29.81 in 10.0 mi Calm Calm - N/A   Scattered Clouds
6:53 AM 71.1 °F 51.1 °F 49% 29.82 in 10.0 mi SE 6.9 mph - N/A   Scattered Clouds
7:53 AM 77.0 °F 50.0 °F 39% 29.82 in 10.0 mi Calm Calm - N/A   Scattered Clouds
8:53 AM 78.1 °F 50.0 °F 37% 29.83 in 10.0 mi SSE 4.6 mph - N/A   Scattered Clouds
9:53 AM 84.9 °F 48.0 °F 28% 29.81 in 10.0 mi SSE 4.6 mph - N/A   Scattered Clouds
10:53 AM 90.0 °F 45.0 °F 21% 29.81 in 10.0 mi South 4.6 mph - N/A   Scattered Clouds
11:53 AM 93.0 °F 44.1 °F 18% 29.79 in 10.0 mi Variable 4.6 mph - N/A   Scattered Clouds
12:53 PM 95.0 °F 45.0 °F 18% 29.78 in 10.0 mi SSE 4.6 mph - N/A   Scattered Clouds
1:53 PM 97.0 °F 48.0 °F 19% 29.75 in 10.0 mi North 11.5 mph 23.0 mph N/A   Scattered Clouds
2:53 PM 98.1 °F 45.0 °F 16% 29.73 in 10.0 mi Variable 4.6 mph - N/A   Scattered Clouds
3:53 PM 99.0 °F 44.1 °F 15% 29.70 in 10.0 mi ENE 9.2 mph - N/A   Scattered Clouds
4:53 PM 99.0 °F 43.0 °F 15% 29.68 in 10.0 mi Variable 5.8 mph - N/A   Scattered Clouds
5:53 PM 99.0 °F 44.1 °F 15% 29.65 in 10.0 mi North 6.9 mph - N/A   Scattered Clouds
6:53 PM 97.0 °F 44.1 °F 16% 29.66 in 10.0 mi WNW 5.8 mph - N/A   Mostly Cloudy
7:53 PM 93.0 °F 48.9 °F 22% 29.68 in 10.0 mi South 17.3 mph 24.2 mph N/A   Mostly Cloudy
8:53 PM 90.0 °F 50.0 °F 25% 29.70 in 10.0 mi South 15.0 mph 20.7 mph N/A   Mostly Cloudy
8:59 PM 89.6 °F 50.0 °F 26% 29.90 in 10.0 mi SSW 17.3 mph 23.0 mph N/A Thunderstorm Thunderstorm
9:18 PM 87.8 °F 48.2 °F 25% 29.91 in 10.0 mi SW 12.7 mph 24.2 mph N/A   Mostly Cloudy
9:47 PM 87.8 °F 48.2 °F 25% 29.94 in 10.0 mi SSW 9.2 mph - N/A Thunderstorm Thunderstorm
9:53 PM 88.0 °F 48.9 °F 26% 29.75 in 10.0 mi South 9.2 mph - N/A Thunderstorm Thunderstorm
10:34 PM 75.2 °F 57.2 °F 53% 30.00 in 9.0 mi SE 12.7 mph - 0.02 in Rain , Thunderstorm Light Thunderstorms and Rain
10:49 PM 75.2 °F 62.6 °F 65% 29.99 in 10.0 mi ESE 5.8 mph - 0.02 in Rain Light Rain
10:53 PM 75.0 °F 62.1 °F 64% 29.80 in 10.0 mi South 4.6 mph - 0.02 in Rain Light Rain
11:26 PM 75.2 °F 62.6 °F 65% 30.00 in 10.0 mi ENE 5.8 mph - 0.00 in Rain , Thunderstorm Light Thunderstorms and Rain
11:46 PM 77.0 °F 64.4 °F 65% 30.00 in 10.0 mi SSW 8.1 mph - 0.00 in Rain Light Rain
11:53 PM 75.0 °F 64.0 °F 69% 29.81 in 10.0 mi Calm Calm - 0.00 in   Overcast